GFSMW_2pvu_pres_087.txt.gz
Presure
141 142 143 148 149 147 187 155 212 199 241 193 159 153 185 123 142 148 149 140 122 147 117 134 135 82 135 162 144 158 162 161 157 183 172 170 132 116 162 178 168 122 167
150 152 152 156 257 270 276 189 241 176 206 177 166 122 118 175 182 146 159 136 125 129 135 148 136 149 141 155 148 154 173 156 162 172 180 143 146 198 178 163 170 186 182
316 163 251 253 270 267 224 210 246 219 183 155 165 138 157 170 141 176 136 121 135 128 140 143 145 156 159 149 159 176 145 167 125 170 132 182 175 168 196 142 163 168 165
144 226 205 262 264 111 245 253 240 234 196 223 152 167 168 143 180 145 133 146 146 141 128 141 146 142 198 157 181 165 159 177 174 154 151 169 147 187 165 158 172 169 152
144 144 208 357 143 143 301 152 141 139 150 142 143 167 151 142 138 138 148 142 143 154 145 142 144 159 124 171 160 181 168 159 179 176 186 182 171 202 167 169 152 173 179
144 149 146 145 151 151 147 146 150 141 139 142 143 142 156 145 142 145 137 142 136 149 148 154 171 168 169 158 195 160 148 170 162 215 192 163 173 143 175 201 163 171 177
151 163 232 157 152 153 149 147 145 145 143 141 143 140 141 141 143 144 147 146 146 163 157 176 159 164 152 154 154 172 173 173 195 193 174 177 197 161 193 164 171 169 154
265 168 165 160 158 153 152 158 155 145 150 147 150 147 145 143 143 151 144 150 149 189 155 158 167 162 169 154 170 169 172 183 173 196 175 175 167 184 187 173 153 189 172
263 255 248 263 188 173 164 159 157 158 158 155 163 158 155 162 154 160 161 156 168 159 184 200 161 194 200 175 180 170 163 169 179 164 170 167 191 163 179 187 183 167 199
260 249 245 241 252 260 253 174 183 172 166 167 175 185 221 221 171 162 192 170 201 178 179 166 180 184 179 170 190 183 187 154 186 184 160 187 175 168 191 183 182 166 178
244 251 260 240 236 261 250 263 251 208 186 196 206 179 193 182 191 179 189 189 213 191 220 196 208 184 158 165 167 173 178 196 184 186 175 174 169 167 160 176 173 188 167
242 245 247 247 235 257 245 248 249 208 207 188 187 195 212 206 193 193 201 219 196 215 194 201 194 199 212 184 184 182 178 179 171 169 179 188 187 171 172 185 199 194 187
247 234 239 225 231 248 246 259 243 231 201 235 216 192 190 191 188 188 216 213 202 186 183 185 203 171 169 180 194 166 185 190 198 168 185 197 187 188 197 174 178 161 157
238 230 247 247 241 224 249 236 240 247 252 212 207 202 200 201 183 190 184 212 193 184 177 172 190 189 194 187 196 195 197 199 176 189 191 195 183 179 176 169 174 179 219
249 241 250 237 243 239 238 223 231 257 228 197 202 200 211 209 216 210 222 214 191 192 208 184 205 191 185 208 195 204 189 194 201 175 179 195 196 189 164 189 223 189 229
256 230 221 248 222 238 241 245 247 240 234 237 215 215 198 205 192 213 233 215 201 195 214 188 211 188 198 196 218 190 208 214 204 203 203 176 187 208 205 214 183 188 200
245 244 236 238 254 240 250 234 245 237 227 246 234 230 207 231 212 234 214 209 215 200 211 209 207 203 200 202 219 205 171 186 199 204 209 203 191 206 203 220 205 163 161
262 302 311 284 255 269 245 239 230 244 237 242 229 241 235 246 225 219 216 217 227 201 203 209 198 199 204 199 201 202 222 207 204 213 212 209 215 206 225 199 196 206 210
210 204 226 275 274 269 268 177 182 258 253 231 241 236 238 233 245 227 222 218 216 222 207 223 221 216 223 219 214 225 213 197 204 228 220 206 188 183 219 207 192 198 205
199 202 181 238 212 244 222 192 253 228 232 264 262 257 234 211 220 252 244 253 245 237 229 238 221 227 228 198 197 192 222 220 226 197 211 192 208 207 219 205 212 215 203
207 223 213 227 237 204 219 263 179 178 235 226 247 227 243 236 265 303 229 268 249 243 198 246 242 208 208 202 221 246 206 197 201 193 222 218 219 220 216 208 201 210 202
223 196 197 219 223 229 250 232 227 227 259 209 199 237 285 230 224 221 235 280 302 284 270 287 267 252 235 226 227 214 217 242 214 222 229 241 228 215 217 219 215 239 227
195 219 220 218 244 240 249 233 275 282 302 320 351 357 353 349 348 336 234 337 260 256 325 262 293 319 265 268 287 278 273 249 254 261 265 243 233 229 246 218 262 221 276
200 213 223 220 230 245 244 242 279 304 355 382 378 375 372 372 371 369 366 362 360 359 353 261 245 238 253 313 242 241 283 223 237 241 244 295 276 266 281 294 282 301 260
194 210 214 219 244 247 238 269 271 342 399 398 402 413 421 424 422 420 480 481 510 508 504 503 437 423 369 338 293 245 275 318 290 257 314 269 233 272 255 264 277 245 256
187 210 213 219 230 255 237 250 303 425 430 448 459 466 463 454 443 430 407 381 364 367 379 399 414 422 448 477 472 461 415 355 345 336 323 305 296 300 289 285 289 276 284

GFSMW_2pvu_pres_090.txt.gz
Presure
213 141 141 140 152 142 147 141 120 144 152 131 97 158 216 247 153 126 166 164 201 132 160 149 146 139 138 137 122 133 129 132 138 154 140 165 171 144 177 143 174 166 150
138 142 208 178 194 206 141 144 150 146 143 131 134 145 201 230 218 181 170 147 114 143 148 161 155 154 138 132 134 127 135 139 143 137 150 149 146 146 161 178 148 150 163
201 165 177 139 140 130 143 141 121 133 145 145 148 203 197 236 198 194 208 139 143 161 149 149 183 158 128 149 143 132 140 133 138 147 126 161 172 151 154 162 135 164 170
140 129 135 139 142 143 147 146 143 140 155 238 240 227 226 261 152 210 207 202 191 163 149 182 170 142 132 160 149 159 140 138 141 166 169 171 163 186 167 183 183 149 166
310 140 140 139 142 144 142 154 136 270 230 234 259 254 217 153 223 141 205 145 142 193 143 148 157 128 133 139 129 158 141 149 145 146 152 138 161 208 153 146 167 180 176
137 163 151 141 171 208 255 137 132 207 152 237 149 241 152 156 150 182 155 199 163 143 140 160 172 136 141 156 138 148 173 160 141 153 170 173 168 156 145 199 187 168 171
161 292 209 150 186 148 151 149 147 149 256 189 241 243 166 153 147 139 140 146 150 151 144 148 141 142 146 147 162 155 144 142 157 154 172 159 166 143 193 182 178 157 176
153 174 151 152 154 153 154 152 154 163 183 230 212 152 206 158 158 150 144 143 145 144 151 147 145 153 155 151 177 169 153 156 165 161 153 179 179 177 191 199 169 207 166
187 198 177 195 168 175 276 268 173 217 194 166 155 155 174 158 154 151 154 156 162 150 152 152 155 166 154 156 151 161 164 164 196 144 180 171 162 192 160 172 154 170 193
277 269 260 261 208 178 216 229 270 218 204 161 198 240 227 180 161 219 208 204 198 216 209 158 183 180 153 186 172 208 211 188 202 182 178 172 180 158 168 163 170 175 176
258 271 251 256 249 250 232 210 236 182 193 165 197 180 188 166 183 175 207 214 221 191 199 170 209 180 194 213 175 189 183 171 171 174 178 182 168 166 171 188 166 163 157
248 246 252 257 250 245 245 262 256 242 199 178 255 238 220 197 223 199 217 225 216 225 213 191 192 215 203 183 171 191 187 196 187 207 194 191 186 185 183 170 152 194 190
244 249 249 258 260 255 253 245 250 251 243 264 247 232 227 208 195 203 178 214 174 191 200 218 197 208 201 209 204 189 193 205 190 182 199 193 185 188 196 178 187 188 176
227 246 257 246 231 255 242 263 243 233 258 249 243 221 217 227 225 203 223 209 207 200 212 195 199 187 198 194 186 203 182 187 195 173 159 170 210 208 198 209 186 186 181
230 155 184 246 250 249 238 219 241 253 250 238 247 234 224 204 205 218 214 215 198 213 200 214 197 193 180 187 206 212 190 199 184 197 201 203 209 222 189 185 210 188 188
129 254 236 226 255 263 250 254 230 240 224 261 257 253 223 229 225 203 215 206 205 233 205 209 211 196 207 212 197 226 202 166 201 183 205 219 170 171 210 182 191 192 192
247 183 234 227 230 232 254 250 258 237 225 236 214 252 253 247 249 228 242 203 204 210 201 191 202 203 206 204 201 201 210 195 184 207 231 220 205 204 199 203 210 185 214
173 195 203 226 263 236 263 288 244 273 264 271 253 244 234 234 242 257 251 241 230 215 217 207 207 209 208 213 213 211 216 198 200 197 216 209 211 211 201 225 212 213 201
111 197 216 212 207 211 211 240 207 234 205 222 229 241 254 260 258 239 232 225 237 258 222 227 218 216 231 217 222 212 216 217 224 186 184 224 193 219 226 212 230 212 215
224 216 194 183 226 186 198 230 213 196 202 207 264 188 258 234 189 242 188 277 236 192 248 243 257 244 237 237 233 228 228 243 226 212 210 209 231 228 197 222 248 201 204
194 172 178 197 203 214 214 205 218 225 236 239 249 242 227 196 203 219 275 203 245 260 183 252 243 264 256 260 230 224 242 216 219 235 233 212 222 215 216 219 233 212 235
178 179 188 177 172 205 214 221 224 231 238 239 237 249 258 278 337 331 334 317 232 312 233 240 276 237 267 294 273 238 243 257 251 241 249 244 230 235 232 244 209 217 225
159 205 193 184 212 176 217 208 223 229 233 233 238 259 272 408 405 408 415 426 428 422 410 389 376 351 342 248 239 228 254 243 257 301 281 275 261 220 231 260 290 273 256
214 175 187 175 216 186 228 222 211 228 237 238 248 273 419 452 493 502 496 489 481 474 467 468 459 447 429 389 370 345 286 271 265 243 268 237 236 243 285 292 278 238 244
162 230 205 205 181 181 191 236 219 230 237 240 259 275 495 439 402 429 467 476 478 471 377 386 399 431 449 434 428 422 406 361 335 321 258 257 273 266 264 246 242 244 232
153 164 199 172 223 229 211 241 234 238 242 248 266 359 412 482 481 484 469 452 464 481 574 545 517 467 445 406 424 413 419 424 444 451 370 335 319 312 301 296 292 291 291

GFSMW_2pvu_pres_093.txt.gz
Presure
145 154 133 151 199 162 183 152 132 136 171 137 143 155 148 163 126 97 135 133 130 120 187 145 161 166 144 112 150 116 110 149 154 139 146 137 142 135 126 140 128 137 163
141 139 141 149 131 150 138 133 163 182 150 147 132 154 87 101 129 115 110 139 126 163 261 198 215 152 153 112 187 124 128 167 137 149 147 132 131 140 137 142 132 143 175
138 151 134 146 213 150 203 213 182 133 134 140 143 139 140 133 120 133 151 97 143 196 152 227 199 191 166 150 127 196 168 158 133 145 142 157 135 124 135 150 141 140 153
138 149 270 140 153 152 139 134 133 193 124 199 149 146 143 153 128 135 141 242 140 144 230 235 147 148 174 159 149 148 150 159 155 127 161 165 136 133 159 164 145 119 147
142 155 142 136 139 139 139 208 156 200 156 135 138 136 133 229 249 209 147 235 237 213 203 192 206 195 209 137 199 159 130 188 184 202 182 149 205 157 141 132 146 188 165
143 141 135 137 143 302 337 328 159 160 147 144 140 253 254 312 245 270 268 150 228 194 222 220 146 196 128 133 158 208 134 138 154 138 146 133 140 146 145 152 146 180 148
145 174 133 127 142 144 141 142 143 142 196 135 135 135 136 136 138 200 145 216 190 218 222 183 154 209 142 159 142 139 169 176 156 142 144 140 148 143 149 151 154 155 187
140 149 152 269 288 284 282 279 261 296 299 293 286 264 141 141 141 145 152 268 206 158 149 150 147 149 151 149 156 152 177 194 186 185 211 194 185 158 173 184 175 202 167
312 279 264 267 173 173 171 155 155 151 233 253 217 148 148 148 149 256 262 165 151 207 208 199 202 204 155 161 203 173 152 163 201 154 149 173 193 154 173 156 195 161 188
213 212 166 165 232 166 201 233 205 163 163 163 162 161 221 219 238 228 276 158 161 171 183 212 214 212 183 160 156 187 178 209 197 170 206 201 192 186 176 194 190 180 160
276 270 271 274 262 263 269 236 193 187 204 226 189 218 219 230 189 178 222 234 206 206 200 222 212 173 195 198 192 204 172 171 194 198 183 179 196 170 187 189 186 174 198
271 273 264 263 265 256 272 249 252 255 262 252 195 272 247 176 261 185 242 224 221 217 211 201 183 208 166 195 170 176 198 165 178 209 167 186 178 213 173 168 168 198 200
274 236 138 264 259 225 264 259 253 256 254 243 251 257 259 248 251 232 204 178 182 195 196 201 195 208 208 193 204 197 215 178 178 186 187 210 180 163 188 205 166 176 204
202 238 192 247 228 262 157 222 240 237 235 233 241 240 259 254 250 250 215 223 207 222 224 213 195 176 190 185 189 199 187 186 186 198 199 193 195 195 196 210 185 201 182
253 202 252 233 130 206 250 224 253 232 245 253 246 223 223 230 245 253 255 209 215 223 209 207 217 220 211 212 209 210 213 199 204 211 203 196 190 196 192 190 183 191 194
150 278 234 252 255 236 244 281 245 229 232 259 232 235 233 230 202 212 218 250 227 227 205 208 216 197 204 205 204 213 216 192 189 187 182 224 200 197 214 205 201 200 191
143 155 243 221 235 205 234 207 247 218 269 273 276 268 272 241 233 228 225 216 216 246 233 216 212 222 186 201 212 192 207 203 202 204 209 209 204 203 212 204 195 200 198
139 224 131 115 177 193 218 203 211 221 193 213 219 217 207 226 226 223 241 243 251 266 240 232 225 225 216 223 189 204 216 219 209 209 237 193 189 207 212 208 209 202 203
121 149 178 135 122 210 191 207 217 210 213 221 215 212 205 223 230 236 220 235 233 245 244 237 257 224 259 237 215 226 246 231 214 230 197 216 196 197 218 197 206 202 220
155 144 135 135 198 174 140 201 191 208 209 215 233 208 214 228 229 240 208 244 249 232 214 177 256 335 265 171 273 253 244 249 217 228 231 217 228 226 228 225 232 234 203
178 151 141 141 144 144 181 197 216 186 208 193 221 192 237 237 235 242 242 250 249 266 246 272 358 218 334 260 292 281 287 271 224 254 257 231 182 248 244 228 221 223 215
184 183 170 152 171 162 165 177 195 215 230 235 191 203 215 222 245 246 253 253 274 301 514 506 483 473 505 483 378 247 284 280 276 251 288 291 280 237 252 254 219 224 230
156 142 209 136 167 210 202 199 223 189 242 223 204 192 216 252 244 262 252 271 292 455 448 513 513 508 492 401 416 486 460 420 296 253 239 243 247 278 293 267 224 219 270
190 140 215 235 167 202 161 153 204 228 242 220 250 235 243 250 243 252 264 283 430 505 512 493 478 472 476 509 569 481 397 433 451 441 382 356 290 248 264 234 235 247 247
188 160 214 151 178 242 240 173 241 202 248 225 248 212 260 246 259 257 277 317 508 494 478 447 430 422 425 438 502 564 531 460 392 434 441 435 376 348 340 325 268 278 266
165 220 220 183 149 184 190 172 213 234 235 205 214 235 257 254 254 275 294 487 489 476 432 410 411 405 397 396 433 566 534 510 479 379 384 432 421 399 369 348 337 322 301

GFSMW_2pvu_pres_096.txt.gz
Presure
132 133 127 129 127 135 133 203 148 133 142 140 156 151 123 158 169 225 211 136 204 109 126 97 129 130 133 125 137 140 163 172 210 222 142 153 134 125 149 132 153 116 145
134 136 129 118 131 134 134 147 134 149 141 152 144 155 154 193 174 157 146 127 138 144 104 143 160 138 147 118 140 134 171 159 151 161 169 123 146 153 179 154 148 157 137
137 129 126 132 139 121 134 141 142 154 200 151 145 157 149 159 136 141 129 152 129 162 145 148 109 143 137 118 133 160 157 188 145 138 117 139 156 192 148 132 134 148 123
134 128 141 118 134 140 129 143 149 137 136 136 137 135 135 148 139 169 134 128 178 170 105 155 196 129 138 177 239 224 217 208 184 207 194 128 144 135 148 145 135 148 139
129 148 143 138 137 142 141 132 129 127 128 90 158 183 134 138 142 143 128 134 142 217 137 153 180 123 150 190 239 230 225 182 192 212 135 178 177 172 135 148 129 137 122
137 151 151 148 169 170 139 141 140 135 137 143 144 185 178 139 137 137 131 134 137 138 128 129 189 196 260 145 176 205 216 135 132 153 139 135 134 134 144 140 137 145 137
140 136 261 142 140 135 136 137 140 131 127 134 139 143 141 148 139 136 134 130 127 138 139 135 135 246 201 220 173 231 172 189 196 139 218 139 139 140 128 158 183 125 145
160 229 140 144 138 136 132 128 127 133 140 153 156 142 158 153 146 322 317 365 309 300 301 299 140 143 155 163 209 169 220 139 135 137 136 181 143 141 181 189 192 152 181
141 143 146 147 142 142 167 290 169 295 199 212 202 254 325 187 294 278 165 288 277 162 163 143 144 142 154 191 208 208 159 153 191 205 155 216 200 145 156 144 151 161 196
306 296 294 245 311 302 300 291 302 290 287 203 281 283 271 277 278 278 279 261 256 261 208 230 205 212 225 201 183 174 176 196 212 220 207 188 197 191 168 175 197 202 150
280 275 262 179 214 215 211 240 275 242 276 272 254 232 263 271 197 238 268 249 234 217 220 215 214 182 165 174 177 178 209 199 203 200 191 193 201 198 168 153 167 210 190
135 273 285 279 268 269 260 263 262 193 114 258 182 207 206 218 181 181 175 181 200 220 259 182 205 196 204 218 210 195 212 201 206 210 207 189 174 174 206 172 164 206 195
215 223 246 236 236 268 131 163 265 264 132 238 255 257 254 242 253 214 197 214 229 218 191 202 218 216 198 214 181 207 179 174 185 173 206 192 192 192 188 189 195 201 212
172 110 259 260 128 123 269 271 125 107 201 219 245 230 261 257 265 257 252 245 253 231 186 175 182 182 200 192 187 185 187 207 195 197 184 178 197 197 195 196 198 208 189
245 227 156 260 208 128 116 207 128 248 241 240 237 254 226 226 249 214 225 255 247 262 252 243 235 237 216 222 214 201 216 192 188 186 200 208 186 188 197 195 202 201 193
255 137 127 127 153 234 241 245 97 124 252 253 267 195 254 247 243 244 234 246 215 183 249 260 235 250 234 215 218 201 211 222 213 214 206 191 198 195 201 204 162 189 180
176 201 243 199 131 129 144 147 161 150 203 204 250 243 213 208 255 260 274 276 269 258 238 214 220 253 220 216 204 207 215 205 210 210 209 202 201 207 177 201 204 195 202
142 143 153 158 121 137 134 124 154 185 181 164 214 216 212 192 219 229 200 196 203 220 237 248 255 255 253 244 236 234 228 222 222 227 202 213 213 199 199 197 189 208 187
138 143 137 145 180 163 169 143 166 170 172 177 186 185 197 187 201 182 199 223 223 192 228 199 216 173 194 219 240 198 270 253 248 233 223 226 232 236 215 225 227 232 218
140 147 167 160 189 130 146 137 177 149 122 244 154 155 204 184 185 203 196 216 247 246 241 270 231 212 207 233 211 240 254 250 270 270 266 245 252 245 235 240 226 219 224
154 172 157 122 204 205 119 210 205 226 145 204 207 156 219 213 224 215 193 184 193 242 223 253 250 240 266 264 275 286 303 394 350 243 240 414 336 280 253 245 245 230 231
205 121 206 213 197 170 192 206 217 197 145 215 208 233 200 244 179 194 244 258 227 243 238 242 254 264 266 277 299 478 515 533 524 506 477 363 293 325 368 278 276 285 249
229 228 235 232 215 233 201 216 220 236 214 236 223 174 188 225 188 255 249 258 264 230 240 245 263 262 277 311 515 495 477 470 474 499 499 474 417 404 367 254 250 250 254
234 207 238 207 226 202 214 215 202 188 231 234 195 179 168 248 178 261 264 231 256 236 240 264 268 279 358 508 479 450 429 421 424 435 448 555 464 406 435 410 392 369 358
218 224 200 214 194 214 198 202 217 177 216 240 201 204 213 171 254 253 274 257 243 241 269 268 284 315 506 475 434 413 400 402 396 396 402 493 566 456 395 444 405 383 362
212 206 227 225 186 146 232 234 231 207 244 198 193 181 235 253 259 257 247 231 242 270 268 283 310 463 490 436 399 384 379 376 382 386 387 441 550 532 436 384 441 399 377

GFSMW_2pvu_pres_099.txt.gz
Presure
134 150 119 156 124 120 139 143 142 136 183 143 133 122 114 146 122 123 134 153 141 125 157 192 137 115 139 136 116 124 185 128 136 114 124 116 146 134 144 150 105 189 132
101 135 112 124 141 103 134 141 136 139 138 138 123 139 141 141 140 182 126 130 139 160 133 128 120 133 128 120 128 131 133 134 120 108 126 166 150 158 155 153 147 167 152
128 160 136 148 129 128 138 139 137 139 138 145 126 139 132 139 156 143 124 115 138 133 130 132 188 159 130 132 152 174 125 152 148 130 104 152 188 159 163 184 182 154 174
147 145 133 133 99 132 132 134 138 130 151 133 146 131 129 133 135 134 138 131 136 124 110 127 128 219 147 129 170 164 109 164 152 149 101 248 150 163 247 186 185 205 126
119 124 132 135 131 132 134 141 141 135 153 138 138 130 132 131 139 157 129 140 141 198 143 203 127 122 133 129 142 144 151 118 185 115 149 129 153 231 230 215 192 122 135
129 133 182 365 203 152 141 136 140 141 140 145 152 149 272 132 131 136 133 134 134 133 128 132 181 174 137 182 134 153 126 198 137 133 240 186 206 225 218 166 200 156 181
130 168 162 146 140 152 142 137 133 138 141 137 136 137 139 141 173 126 129 134 177 188 163 155 129 129 134 170 133 130 129 159 191 202 132 209 134 193 224 135 202 171 151
155 152 158 144 140 135 269 343 215 145 132 132 135 133 131 132 133 141 142 161 187 188 198 145 194 204 203 203 209 209 211 282 282 148 135 212 135 203 213 152 217 207 168
144 147 146 144 145 144 141 140 140 140 141 142 141 166 170 327 171 154 145 243 265 262 203 201 208 209 161 313 279 285 269 251 239 237 197 141 155 217 202 203 208 207 181
148 144 145 146 147 148 192 152 200 265 293 305 302 312 305 290 298 288 289 256 268 230 304 278 256 281 281 271 251 262 251 243 236 226 223 220 228 224 213 175 150 155 171
283 283 246 179 287 289 243 194 293 298 294 313 267 268 276 152 267 284 280 277 293 276 268 265 263 260 256 257 260 242 237 209 220 216 212 211 201 195 211 208 214 208 193
280 126 279 144 147 272 273 263 278 279 113 270 235 277 118 245 106 94 279 272 265 267 250 242 248 259 250 252 238 177 167 163 162 166 166 166 194 193 193 198 197 192 198
272 117 143 140 175 193 265 242 145 119 237 161 264 104 128 189 259 264 258 259 193 200 200 235 234 241 236 230 180 172 172 173 201 205 195 207 208 199 184 184 207 206 196
122 134 141 110 254 178 172 250 165 152 195 124 191 247 240 234 173 102 263 102 248 258 258 239 221 193 192 187 230 209 190 215 205 218 194 191 185 177 175 176 174 177 187
113 116 273 138 126 147 140 124 131 231 223 133 245 125 218 225 201 233 236 205 196 259 251 253 249 244 250 235 192 203 202 234 195 203 222 201 199 186 179 191 203 208 192
283 121 169 229 252 188 126 258 234 129 254 158 153 214 262 263 264 270 252 264 259 249 241 227 230 236 240 258 249 237 242 222 197 192 205 205 222 214 216 208 203 200 202
158 155 188 222 145 126 151 130 131 157 118 166 167 144 209 220 216 218 220 208 229 222 250 253 264 273 255 242 230 245 253 250 239 206 221 221 233 217 210 226 224 218 203
181 197 166 178 138 141 135 138 149 132 143 153 132 165 164 178 196 193 199 208 210 203 220 211 220 231 223 200 224 264 176 215 237 251 220 208 170 170 204 228 222 211 205
160 160 156 155 151 145 163 132 165 211 138 199 164 209 127 124 141 214 183 214 191 211 213 184 191 188 182 203 213 196 196 237 225 215 255 236 211 215 236 221 198 222 228
212 211 213 158 210 199 148 211 203 174 193 213 150 124 200 216 225 210 222 230 191 237 185 216 200 236 208 192 226 209 215 239 244 224 250 247 264 217 236 267 256 235 234
233 227 223 221 224 220 206 221 209 215 217 156 172 211 204 183 220 215 219 212 180 229 213 208 222 262 254 278 220 219 223 288 274 229 213 252 241 236 253 239 244 273 282
225 227 228 229 237 198 231 223 192 213 226 229 216 231 229 216 202 204 196 169 169 172 173 209 205 216 267 268 262 276 270 263 244 247 256 269 292 311 358 538 499 471 460
227 221 230 225 230 213 222 237 207 216 227 212 230 189 215 201 240 181 163 164 163 201 253 214 240 183 263 266 264 264 274 259 254 283 293 304 321 477 464 462 478 454 464
222 222 223 217 208 178 172 206 231 192 143 250 232 180 252 257 224 167 266 252 264 260 269 264 256 262 262 262 266 280 257 274 285 296 314 481 457 437 429 426 432 452 503
259 262 264 260 260 244 264 169 271 272 273 276 277 248 276 275 201 173 230 271 240 252 260 263 264 265 271 271 253 264 279 288 306 326 433 428 408 401 395 397 397 406 458
248 238 246 283 247 209 271 170 272 274 274 273 282 281 158 173 292 281 270 242 267 266 267 269 279 283 262 263 274 281 294 315 417 417 404 392 381 375 376 378 382 390 393

GFSMW_2pvu_pres_102.txt.gz
Presure
123 161 132 144 144 136 152 140 146 147 127 156 168 145 135 143 137 143 132 153 141 134 216 152 114 143 126 148 201 114 134 138 120 216 180 123 167 213 137 110 126 103 142
161 147 155 142 135 144 148 140 165 119 134 130 141 138 142 132 147 136 119 144 138 143 153 144 100 122 154 121 123 137 122 172 125 122 166 126 158 123 169 144 135 105 124
101 239 140 135 129 148 185 179 124 136 139 151 148 136 132 140 145 119 136 123 117 151 130 161 127 102 140 122 140 135 146 198 126 168 177 126 124 125 159 139 138 151 129
428 259 137 146 141 78 135 127 110 138 125 145 130 142 147 145 144 136 138 138 148 135 133 129 185 125 127 133 130 139 203 205 149 149 197 135 190 124 123 140 112 137 117
391 132 215 91 137 141 141 138 133 138 131 140 149 139 151 138 141 148 120 129 131 131 132 167 128 127 133 133 127 134 124 140 137 134 135 187 120 187 133 146 129 135 201
89 260 304 126 136 127 128 119 131 135 133 135 155 143 142 150 136 166 149 150 135 184 134 129 128 122 122 123 135 173 139 134 135 182 132 133 131 182 129 129 117 202 126
146 143 141 121 143 130 123 130 128 277 149 141 151 152 148 144 147 147 143 142 136 134 135 162 174 128 131 155 131 197 185 208 149 177 175 193 211 196 168 215 137 190 173
132 135 158 132 133 130 133 154 158 148 148 138 136 135 148 150 149 135 137 135 133 132 134 134 156 144 135 136 136 136 177 143 142 140 141 167 203 194 196 197 191 192 227
135 160 300 278 188 164 159 159 155 137 161 336 315 149 137 137 141 142 140 146 174 181 183 158 235 318 165 295 189 178 179 179 180 181 183 181 190 194 194 196 180 240 229
238 155 213 139 152 148 146 148 148 145 143 140 140 142 143 225 323 321 306 208 294 317 311 302 283 275 275 283 267 266 266 263 261 245 192 196 174 205 280 222 244 238 225
199 250 298 299 298 154 151 149 164 201 203 153 248 282 288 289 282 283 274 242 293 260 292 107 181 296 277 204 205 265 206 274 248 194 184 187 223 218 201 181 238 225 228
256 162 152 264 278 276 276 276 125 211 284 271 294 264 267 266 226 271 262 266 269 110 128 285 272 277 263 179 257 256 260 253 259 259 251 250 245 237 167 234 227 214 211
268 253 225 131 246 129 135 237 123 131 119 276 269 217 118 124 122 243 119 243 239 265 268 133 263 231 228 253 245 208 246 248 249 249 244 246 239 234 229 241 227 231 213
196 135 134 133 192 223 131 251 238 217 200 185 254 199 121 130 212 211 244 111 258 250 271 251 251 260 225 233 249 255 236 233 238 251 210 224 234 230 213 208 231 203 195
121 113 118 124 122 127 123 271 121 259 137 111 143 132 131 253 161 186 243 112 215 244 239 247 253 233 245 226 227 215 238 228 243 235 215 234 235 210 211 196 192 199 201
247 251 129 124 129 122 205 125 123 114 183 262 260 142 153 130 249 133 142 142 128 266 253 250 250 246 238 166 242 250 254 234 245 235 229 238 205 220 229 225 220 219 223
141 159 138 124 153 223 142 147 152 180 160 153 162 158 135 133 141 129 157 178 194 140 179 199 196 219 201 204 194 186 209 191 258 252 248 236 236 234 215 218 216 171 219
206 178 174 169 187 176 152 160 171 165 146 141 149 141 140 162 179 212 130 159 191 218 177 164 201 201 202 225 220 202 221 193 214 236 226 180 241 200 206 222 209 179 203
202 199 202 201 201 216 211 204 152 147 146 145 148 183 225 219 202 190 156 217 163 219 205 208 213 234 229 196 172 156 214 175 165 220 240 223 209 205 266 222 251 200 193
232 233 234 233 233 234 231 232 228 227 228 228 226 227 224 228 223 195 226 230 224 195 149 197 200 216 181 213 172 162 164 233 210 245 234 237 193 196 236 224 250 257 262
219 220 223 226 228 226 225 226 227 179 227 233 229 228 228 203 240 228 227 223 223 227 229 189 238 212 164 164 165 183 211 229 214 213 224 235 243 241 233 240 220 263 249
254 251 249 246 208 230 231 202 207 188 198 218 250 225 248 193 247 267 148 214 209 167 218 170 164 165 237 225 213 258 228 246 213 276 250 255 277 261 231 247 230 235 240
269 270 198 189 276 176 252 190 274 178 274 291 288 297 277 268 269 268 282 293 277 279 288 172 280 258 287 286 280 287 282 284 276 268 267 266 274 272 276 281 285 289 280
327 237 295 292 299 282 264 237 244 258 263 265 250 250 248 248 257 268 281 331 320 160 284 169 177 295 171 284 302 293 291 288 285 284 281 279 279 282 288 298 301 296 283
212 230 242 240 254 250 228 225 265 246 259 226 278 299 290 286 273 304 293 300 363 349 339 336 343 327 316 302 295 296 289 298 302 304 304 304 305 306 292 282 289 297 306
189 249 234 200 203 203 206 253 254 289 306 313 303 261 305 275 306 291 300 348 336 325 315 309 307 307 307 306 304 303 303 278 279 283 282 288 295 301 307 313 317 393 422

GFSMW_2pvu_pres_105.txt.gz
Presure
128 130 162 128 130 133 133 131 159 137 132 141 155 190 210 148 149 150 141 139 141 153 153 138 152 127 151 192 134 156 133 125 141 137 114 124 127 121 119 139 108 205 119
148 124 189 151 131 126 124 127 133 168 166 156 171 154 159 146 137 142 157 143 145 128 148 127 145 142 126 140 150 140 139 130 110 131 168 132 124 193 125 145 149 140 134
210 238 162 141 126 124 129 142 142 271 142 145 184 200 150 151 131 161 145 146 135 146 127 132 143 123 141 153 134 142 137 136 150 143 159 128 125 192 172 179 119 178 124
182 327 240 472 104 133 143 148 149 90 147 147 141 123 149 120 127 136 147 130 126 132 142 135 129 142 125 124 141 141 126 193 126 119 129 141 166 160 128 158 185 128 185
451 451 152 151 142 366 150 360 136 119 145 133 168 154 140 137 135 152 135 135 118 140 133 135 138 136 132 129 129 126 206 132 129 133 132 138 139 136 153 126 190 134 151
335 278 310 354 249 297 285 313 234 136 141 139 142 135 135 128 135 138 125 120 153 146 140 137 186 134 124 129 135 135 135 130 131 131 135 133 134 132 132 152 127 127 129
325 93 160 82 91 103 125 132 133 144 145 142 139 127 127 135 125 138 135 144 133 148 146 138 143 135 130 137 144 135 134 145 156 127 130 133 134 136 167 160 192 178 192
307 310 172 173 321 148 150 159 163 140 139 169 132 132 131 132 132 143 140 162 155 146 145 148 135 134 133 132 130 133 137 173 178 182 187 186 143 136 186 198 199 192 196
274 304 289 301 301 227 145 141 144 146 135 128 126 125 131 153 152 155 147 140 164 273 251 141 141 141 140 142 151 137 143 161 161 158 157 171 175 177 176 173 172 175 175
288 237 230 286 220 134 135 241 136 129 127 130 152 280 153 218 206 140 158 149 141 144 143 162 181 178 179 177 177 181 188 305 285 265 259 195 224 230 218 183 176 180 177
267 261 266 272 133 144 191 203 264 128 141 155 155 171 146 145 144 137 225 262 198 198 287 295 290 290 298 289 278 171 178 274 282 148 245 292 286 280 278 273 261 253 247
159 256 166 159 155 152 269 277 271 247 259 277 160 153 153 153 197 267 280 270 265 271 276 272 149 277 288 286 271 280 278 177 263 284 190 188 253 269 258 239 255 152 154
246 227 228 153 153 151 148 171 172 202 260 271 110 185 127 120 99 232 106 241 231 183 114 125 124 234 262 267 267 244 266 260 275 261 260 266 258 256 262 249 247 189 250
157 243 257 266 252 266 260 196 147 198 256 256 127 195 261 120 154 247 178 184 107 249 202 112 250 131 128 187 224 200 247 255 254 248 248 246 240 240 242 241 233 242 243
164 136 144 140 173 129 125 118 137 122 129 125 117 156 118 131 145 151 244 203 255 130 133 165 178 248 133 219 238 219 244 257 240 243 240 228 228 233 233 230 231 251 236
140 135 121 117 121 119 122 131 222 131 128 130 133 125 123 129 126 142 250 234 165 146 254 141 129 122 150 132 134 133 142 243 240 238 242 245 230 229 246 232 229 225 242
131 133 133 148 179 134 133 180 175 190 146 206 183 178 171 179 162 145 160 162 145 198 141 135 128 138 162 158 206 199 186 187 160 193 215 255 244 240 205 228 236 223 209
235 234 235 238 238 240 242 241 241 242 234 197 239 215 231 192 154 159 150 147 144 150 150 141 149 216 226 227 218 227 228 192 201 233 217 213 212 261 170 201 215 196 217
242 242 194 243 239 236 230 226 223 223 226 228 229 230 216 231 234 213 170 153 231 211 204 177 224 206 238 243 237 247 240 243 226 169 235 209 239 230 208 189 158 205 193
196 234 248 249 250 251 250 243 248 241 244 240 235 236 245 232 236 234 233 230 232 232 235 209 149 149 229 174 234 240 226 201 222 222 165 173 167 165 162 162 158 160 235
231 244 304 309 304 302 255 296 289 281 291 298 286 289 286 291 292 292 257 293 249 295 297 294 298 302 303 262 301 280 276 265 247 204 194 162 182 166 164 167 170 231 228
233 225 181 217 215 214 190 270 233 264 231 197 252 267 253 290 288 291 264 275 264 280 278 275 273 265 259 265 264 273 282 259 271 306 213 158 158 263 249 238 238 229 230
279 257 251 259 259 250 273 246 252 259 255 252 283 260 268 309 312 302 330 325 328 331 331 338 290 288 321 320 310 310 361 353 322 306 303 298 291 293 290 304 295 292 290
236 256 263 236 255 272 238 224 219 220 255 250 274 290 305 313 344 344 335 333 320 312 310 280 318 303 312 327 340 333 327 325 329 330 331 330 338 349 311 303 298 291 283
218 227 221 260 246 257 249 253 252 256 254 232 278 276 296 307 344 354 320 314 312 310 345 373 357 344 329 319 309 306 305 304 305 307 310 314 319 323 322 327 317 303 309
232 239 237 229 252 246 249 255 247 253 232 269 275 277 302 304 341 318 306 379 384 346 335 325 314 307 299 290 275 268 276 283 287 290 296 295 294 293 292 289 289 297 297

GFSMW_2pvu_pres_108.txt.gz
Presure
172 159 136 136 142 135 172 148 133 126 127 118 124 127 135 140 181 152 149 167 186 173 157 194 144 149 147 158 146 147 120 144 152 164 140 146 116 151 139 171 125 168 133
165 123 142 142 137 135 142 135 144 125 130 148 143 136 136 152 143 193 193 163 208 200 142 146 142 153 140 145 149 143 149 159 152 145 143 168 122 119 119 132 140 186 124
250 257 227 183 228 113 133 132 135 123 142 173 137 138 143 132 155 202 215 155 192 154 133 132 134 140 144 151 142 140 141 148 139 139 128 160 125 152 153 155 128 160 132
264 114 142 117 309 341 333 381 145 129 140 133 129 143 132 140 145 216 167 259 180 176 130 143 135 143 131 135 124 137 129 143 124 137 133 153 130 130 136 153 130 142 141
99 197 204 372 369 263 369 140 300 386 149 364 307 155 150 143 307 149 128 139 128 139 149 139 144 127 124 118 133 124 138 135 142 123 142 144 133 126 125 134 119 134 130
361 252 260 351 327 290 297 383 197 235 154 151 229 150 133 435 267 131 140 199 212 138 142 133 141 133 142 128 131 132 128 142 128 140 124 129 132 135 136 128 131 160 153
307 318 316 321 329 161 159 81 345 151 356 288 157 197 249 158 212 141 141 140 150 135 128 138 131 140 130 119 133 134 133 163 140 134 131 136 137 131 131 134 135 172 192
278 280 277 281 318 327 130 138 334 338 322 321 301 127 131 353 129 150 136 316 127 132 130 124 133 130 125 142 128 145 146 136 149 130 130 135 141 143 186 175 165 163 171
293 287 262 274 298 290 299 293 288 271 304 310 310 320 146 160 136 128 151 129 127 126 135 135 148 157 152 183 128 128 146 150 136 137 147 182 172 171 175 169 174 171 172
269 269 263 262 263 270 280 279 294 292 297 156 299 303 156 167 140 143 143 137 134 135 136 156 151 153 137 141 267 150 140 142 144 275 272 193 174 185 170 172 141 168 175
270 268 257 177 242 266 246 173 272 198 276 134 134 135 231 272 182 132 130 141 145 154 236 153 244 145 134 145 150 186 281 298 172 268 276 263 255 286 295 285 275 271 183
245 263 238 256 257 147 258 270 266 272 266 259 273 152 266 266 267 194 149 149 151 140 112 106 124 111 107 101 104 118 141 229 270 119 263 248 114 250 250 269 266 265 271
248 238 258 155 145 198 239 260 264 213 177 177 260 262 239 239 260 241 155 175 187 127 120 158 183 214 149 222 270 137 283 242 128 261 221 129 239 256 259 266 267 239 258
239 234 218 227 231 194 139 153 152 152 151 195 213 208 263 253 262 189 250 191 222 251 194 118 256 119 264 255 266 199 187 132 240 140 160 127 274 133 186 199 258 268 263
202 197 198 218 219 225 158 131 149 141 141 163 144 180 122 133 118 128 131 126 127 134 127 128 130 187 135 149 251 254 250 177 244 142 138 229 149 226 251 231 259 238 260
231 176 179 235 140 139 140 140 139 137 131 130 247 247 247 246 244 198 140 140 139 195 201 202 203 211 232 216 164 173 141 250 151 142 141 143 156 158 240 248 239 240 206
159 222 135 136 164 241 246 247 247 194 194 194 235 233 232 234 235 220 238 240 196 181 243 245 242 169 167 162 203 148 152 151 149 153 208 198 187 209 208 220 222 228 216
254 233 235 245 230 265 264 262 260 258 257 259 258 255 256 258 259 262 259 255 251 250 250 248 247 172 162 152 203 195 198 242 245 234 234 232 230 227 224 218 229 242 228
272 272 212 251 225 209 216 219 224 227 251 253 251 240 238 236 237 214 224 231 306 248 247 249 307 285 275 262 259 254 252 250 249 245 235 239 240 241 242 239 233 235 226
263 260 251 262 260 221 266 178 249 268 259 252 249 253 253 245 189 259 252 260 264 269 271 283 306 307 311 270 274 305 307 293 279 267 263 260 261 254 243 245 241 186 243
222 191 237 232 221 234 223 245 248 237 248 198 179 209 228 186 193 242 236 209 194 286 345 288 356 265 328 311 328 332 232 262 292 286 280 296 271 285 276 264 207 154 257
204 212 211 208 213 218 235 235 247 217 236 237 230 255 272 251 226 235 260 297 295 369 354 336 334 336 339 347 345 333 331 330 333 330 330 331 335 339 316 278 269 265 270
240 235 235 200 249 223 254 204 215 225 234 233 240 267 257 248 262 267 277 301 297 324 316 321 420 407 393 379 367 356 336 332 370 362 326 307 306 309 316 311 308 370 293
141 225 203 237 236 240 205 234 236 244 225 255 247 239 250 276 261 253 288 301 324 315 404 378 347 338 331 324 320 316 315 317 319 320 321 323 327 329 332 336 338 341 346
221 218 220 225 220 226 217 245 221 235 256 223 238 265 269 248 268 279 255 294 341 307 363 338 323 312 304 302 298 293 290 291 295 301 400 363 316 307 303 301 299 302 311
224 215 212 216 234 225 228 230 246 229 227 212 247 234 263 273 281 280 279 297 311 349 338 320 308 300 293 281 292 412 440 430 540 527 512 505 500 515 544 545 535 469 421

GFSMW_2pvu_pres_111.txt.gz
Presure
166 163 168 168 169 171 145 136 143 140 132 133 142 141 145 110 112 140 126 142 143 141 149 186 188 157 150 150 162 162 188 176 184 152 146 189 142 136 155 141 130 143 135
104 153 155 159 161 183 171 172 151 142 142 152 105 148 151 135 139 84 132 141 138 140 144 161 156 192 192 178 174 160 176 151 148 153 148 151 152 141 156 174 143 160 132
236 241 192 240 246 211 246 151 133 201 145 143 139 142 144 122 130 136 149 124 134 142 145 148 155 160 151 182 184 137 147 135 142 164 133 133 118 129 141 158 140 129 158
246 248 247 239 239 264 267 364 208 412 399 136 148 138 120 125 143 140 133 366 237 147 136 140 151 155 161 236 142 150 141 140 176 138 121 117 133 137 141 139 133 143 124
124 278 286 274 349 233 118 360 355 120 390 144 133 272 186 401 386 447 144 147 152 130 187 108 127 128 135 158 158 142 124 150 135 122 136 140 130 137 145 136 133 136 120
310 308 206 308 331 94 151 110 336 340 344 369 381 369 185 137 422 412 152 113 147 143 175 138 139 152 141 167 141 136 145 132 139 129 128 125 106 139 143 153 131 151 107
302 305 264 301 288 282 305 316 326 326 185 103 225 364 398 371 389 206 407 147 144 287 373 138 248 139 133 127 149 132 125 135 135 126 138 144 128 133 140 128 141 130 139
298 286 276 277 286 267 263 283 282 315 313 314 305 321 329 338 146 337 133 158 133 124 150 151 374 128 155 127 140 132 130 133 133 134 133 139 142 144 141 134 133 188 162
279 279 268 263 275 274 274 274 276 285 306 280 304 208 296 293 299 295 300 302 151 175 160 133 134 141 143 154 142 130 133 134 138 102 147 146 148 154 137 150 136 142 134
266 274 271 272 268 266 260 266 258 264 269 277 283 284 282 286 290 295 297 296 266 300 131 136 134 211 133 135 144 115 137 139 143 153 150 139 134 142 151 147 265 280 268
265 255 265 255 257 255 258 250 254 258 259 271 268 268 278 271 266 155 133 134 141 273 229 227 233 238 243 131 135 146 107 104 103 120 121 113 123 144 170 246 238 229 234
267 271 288 239 238 238 249 238 236 234 241 241 252 257 159 154 257 264 262 256 267 256 281 257 271 263 161 149 126 152 150 149 122 113 112 111 111 273 243 257 243 243 256
220 222 224 221 215 221 215 216 216 201 207 222 225 226 229 212 154 154 154 154 154 153 234 240 255 225 229 237 127 115 121 118 118 122 120 131 128 165 257 272 239 135 197
226 232 221 221 222 214 152 152 158 200 239 192 151 149 189 191 193 227 191 177 181 179 126 202 123 126 129 127 126 128 131 130 174 133 133 250 229 191 267 253 259 198 237
151 148 148 174 216 216 238 243 249 251 185 167 136 128 129 130 123 122 124 126 130 211 213 245 217 197 221 228 229 237 238 271 254 252 259 247 264 153 277 266 142 265 145
143 142 211 237 238 245 271 287 130 126 140 172 226 227 234 294 248 173 173 295 306 311 294 288 230 193 193 210 241 242 246 217 221 228 226 227 229 154 169 205 158 155 150
132 130 169 172 230 275 274 239 269 271 267 270 252 252 255 270 261 258 253 278 283 279 259 245 264 268 273 307 319 291 273 260 252 243 234 198 184 161 158 176 217 220 234
256 255 243 247 246 245 269 260 246 183 219 230 260 254 235 233 240 239 242 241 242 246 250 247 242 252 256 294 300 299 334 323 298 288 276 264 252 245 240 236 240 242 239
251 230 215 222 217 231 214 216 215 224 222 223 170 171 172 176 160 158 159 161 162 270 265 244 229 228 235 178 223 163 219 294 276 307 309 293 279 190 267 262 256 243 228
245 225 222 231 251 244 205 255 249 237 251 245 216 214 244 244 251 247 249 233 234 219 268 175 229 302 305 332 328 319 378 327 336 339 323 361 328 302 310 297 286 275 264
154 232 227 220 235 227 239 230 244 229 211 225 202 230 238 241 234 252 206 249 271 271 290 287 280 255 338 325 399 383 374 370 375 386 350 336 349 353 339 322 316 310 280
141 148 197 214 235 187 233 229 240 225 232 243 234 226 252 245 236 230 219 254 264 279 270 272 264 307 325 380 359 345 337 330 327 329 333 340 351 340 322 336 350 354 342
217 133 213 220 224 231 215 228 229 226 234 230 247 235 235 229 240 230 256 258 265 265 280 292 295 321 373 351 330 320 314 312 310 310 312 316 319 322 327 336 346 356 318
207 215 216 203 215 218 220 229 233 219 233 225 248 233 215 234 254 239 268 253 262 265 276 297 326 312 345 326 311 305 297 294 294 322 466 477 444 433 484 353 352 322 328
205 202 207 207 217 212 214 200 216 226 229 219 243 238 235 245 212 217 246 262 248 297 284 304 304 347 325 308 297 292 296 397 397 420 451 425 406 527 514 505 498 502 507
207 202 214 209 210 216 223 224 230 230 218 237 225 252 252 238 244 253 246 262 265 274 290 322 329 327 309 296 290 357 374 387 387 445 419 417 522 504 493 480 477 477 493